Location: Herksen
(52.4316°N, 6.1319°E)
Time: 20:36:23
(UTC+00:00)

Cosmos 1238 Rocket - Pass Details

Date: 15 May 2026
Orbit: 351 x 697 km, 82.9° (Epoch: 8 June)

Event Time Altitude Azimuth Distance (km) Brightness Sun altitude
Exits shadow 23:14:57 35° 133° (SE) 936 3.6 -18.4°
Maximum altitude 23:16:05 43° 92° (E) 816 3.6 -18.4°
Drops below altitude 10° 23:20:17 10° 21° (NNE) 2,004 6.7 -18.5°
Sets 23:22:43 0° 15° (NNE) 2,968 8.0 -18.5°
